Other Surface Observations
Issued by NWS Tucson, AZ

Home | Current Version | Previous Version | Text Only | Print | Product List | Glossary On
Versions: 1 2 3 4 5 6 7 8 9 10 11 12 13 14 15 16 17 18 19 20 21 22 23 24 25 26 27 28 29 30 31 32 33 34 35 36 37 38 39 40 41 42 43 44 45 46 47 48 49 50
525
SXUS55 KTWC 010615
OSOTWC

WEATHER ROUNDUP FOR SOUTHEAST ARIZONA
NATIONAL WEATHER SERVICE TUCSON AZ
1115 PM MST TUE MAY 31 2016

AZZ504>506-514-010715-
LOCATION       SKY/WX    TMP DP  RH WIND       PRES   REMARKS
TUCSON         PTCLDY    79  28  15 W7        29.88R
DAVIS-MONTHAN  PTCLDY    78  30  17 W13       29.86R
CHILDRENS PARK N/A      N/A N/A  12 NW4               PIMA CO DEQ
ALVERNON/22ND  N/A       81 N/A N/A NW3               PIMA CO DEQ
CHERRY/GLENN   N/A      N/A N/A N/A N/A               PIMA CO DEQ
TANGERINE      N/A       83 N/A N/A N/A               PIMA CO DEQ
CONTL RANCH    N/A       84  24  11 NW3               PIMA CO DEQ
GRANT/1ST      N/A       83  23  11 W3                PIMA CO DEQ
CRAYCROFT/22ND N/A       83  25  12 N/A               PIMA CO DEQ
GOLFLINKS/KOLB N/A      N/A N/A N/A N/A               PIMA CO DEQ
AJO/12TH       N/A       83  23  11 W3                PIMA CO DEQ
SAGUARO EAST   N/A       26 -18  13 N5                PIMA CO DEQ
FAIRGROUNDS    N/A       77 N/A N/A NW5               PIMA CO DEQ
SAGUARO        N/A       79  24  13 S3G10             *SABINO CYN
SAN CARLOS     N/A       79  32  18 W3                *SAN CARLOS
GREEN VALLEY   N/A       77  18  11 SW4               PIMA CO DEQ
HORSE CAMP CYN N/A       75  24  15 W4G10             *ARAVAIPA CYN
RINCON MTNS    N/A       55  17  22 NW3G13            *NR MANNING CAMP
$$

AZZ509>511-010715-
LOCATION       SKY/WX    TMP DP  RH WIND       PRES   REMARKS
SAFFORD        MOCLDY    79  33  19 S14       29.88R
STRAY HORSE    N/A       57  26  30 NE5               *
TRAIL CABIN    N/A       65  28  25 E6G12             *N OF GRANVILLE
BLACK HILLS    NOT AVBL
DRY LAKE       N/A       59  28  30 NE5               *NATANES MTNS
NOON CREEK     N/A       70  30  23 SW5G11            *PINALENO MTNS
COLUMBINE      N/A       40  28  63 CALM              *PINALENO MTNS
GUTHRIE        N/A       67  27  22 NE10G17           *SW OF GUTHRIE
$$

AZZ502-503-513-010715-
LOCATION       SKY/WX    TMP DP  RH WIND       PRES   REMARKS
NOGALES        MOCLDY    69  31  24 SE3       29.97S
SELLS          N/A       76  34  22 S5                *
SASABE         N/A       69  33  26 S7G14             *ALTAR VLY
HOPKINS        N/A       59  23  25 W9G17             *SANTA RITA MTNS
CARR CYN       N/A       69  16  13 SW4G10            *W OF HEREFORD
$$

AZZ507-508-512-010715-
LOCATION       SKY/WX    TMP DP  RH WIND       PRES   REMARKS
SIERRA VISTA   MOCLDY    68  15  12 W9        30.00F
DOUGLAS        PTCLDY    70  21  15 S7        29.96S
EMPIRE MTNS    NOT AVBL
MULESHOE RANCH N/A       70  25  18 N3                *PRESERVE
HEADQUARTERS   NOT AVBL
$$

.............................NOTES.............................
THIS IS AN AUTOMATED COLLECTIVE WITH MINIMAL QUALITY CONTROL.
PIMA CO DEQ SITES HAVE NONSTANDARD WIND SENSOR HEIGHTS.
PIMA CO DEQ SITES DO NOT REPORT WIND GUSTS.
* INDICATES WIND SENSORS LOCATED AT 20 FEET INSTEAD OF 33 FEET.
..............................KEY..............................
SKY/WX - SKY CONDITION/WEATHER
TMP    - TEMPERATURE IN FAHRENHEIT
DP     - DEWPOINT IN FAHRENHEIT
RH     - RELATIVE HUMIDITY IN PERCENT
WIND   - DIRECTION AND SPEED IN MILES PER HOUR (MPH)
VRB    - VARIABLE WIND DIRECTION
PRES   - MEAN SEA LEVEL PRESSURE IN INCHES OF MERCURY
         F - FALLING PRESSURE   R - RISING PRESSURE
         S - STEADY PRESSURE
VSB    - VISIBILITY IN MILES
HX     - HEAT INDEX IN FAHRENHEIT
WCI    - WIND CHILL INDEX IN FAHRENHEIT
N/A    - NOT AVAILABLE
AFB    - AIR FORCE BASE
         DAVIS-MONTHAN IS DAVIS-MONTHAN AIR FORCE BASE
CYN    - CANYON
MTNS   - MOUNTAINS
NCA    - NATIONAL CONSERVATION AREA
NR     - NEAR
VLY    - VALLEY
CONTL  - CONTINENTAL
PIMA CO DEQ - PIMA COUNTY DEPT OF ENVIRONMENTAL QUALITY



USA.gov is the U.S. government's official web portal to all federal, state and local government web resources and services.